Location: Newark
(13.4500°N, 15.3000°W)
Time: 12:10:56
(UTC+00:00)

Hubble Space Telescope - Visible Passes

Search period start: 23 September 2020 00:00
Search period end: 03 October 2020 00:00
Orbit: 536 x 540 km, 28.5° (Epoch: 22 September)

Date Brightness Start Highest point End Pass type
(mag) Time Alt. Az. Time Alt. Az. Time Alt. Az.
23 Sep 2.2 04:59:33 35° NE 04:59:33 35° NE 05:02:04 10° ENE visible
24 Sep 3.0 04:49:41 22° NE 04:49:41 22° NE 04:51:17 10° NE visible
24 Sep 2.8 06:26:07 10° NW 06:28:46 16° NNW 06:31:26 10° NNE visible
25 Sep 3.6 04:39:46 14° NE 04:39:46 14° NE 04:40:28 10° NE visible
25 Sep 3.0 06:15:57 10° NW 06:18:12 14° NNW 06:20:26 10° NNE visible
26 Sep 3.1 06:05:52 10° NW 06:07:39 12° N 06:09:25 10° NNE visible
27 Sep 3.2 05:55:53 10° NNW 05:57:06 11° N 05:58:20 10° N visible
28 Sep 3.3 05:46:06 10° NNW 05:46:34 10° N 05:47:03 10° N visible
